• In Romania
  • List of Countries
  • For 7 days
  • Water Temperature
  • Satellite Maps
  • Weather Map
  • Weather Widgets
  • user-avatar
    Login

    Hourly Weather Makarska

    Today, 26 February, Monday

    Time Temperature Precipitation Wind Pressure Humidity
    00:00 -6°C° 0 mm 6 mps 756 mmHg 67%
    01:00 -6°C° 0 mm 6 mps 755 mmHg 67%
    02:00 -6°C° 0 mm 6 mps 755 mmHg 67%
    03:00 -6°C° 0 mm 6 mps 755 mmHg 67%
    04:00 -6°C° 0 mm 6 mps 754 mmHg 68%
    05:00 -6°C° 0 mm 6 mps 754 mmHg 67%
    06:00 -6°C° 0 mm 5 mps 754 mmHg 67%
    07:00 -6°C° 0 mm 5 mps 754 mmHg 67%
    08:00 -6°C° 0 mm 5 mps 753 mmHg 66%
    09:00 -5°C° 0 mm 5 mps 753 mmHg 65%
    10:00 -4°C° 0 mm 5 mps 753 mmHg 64%
    11:00 -4°C° 0.1 mm 5 mps 753 mmHg 64%
    12:00 -2°C° 0.1 mm 5 mps 752 mmHg 65%
    13:00 -1°C° 0.1 mm 5 mps 752 mmHg 65%
    14:00 -2°C° 0.3 mm 5 mps 752 mmHg 69%
    15:00 -2°C° 0.3 mm 4 mps 752 mmHg 73%
    16:00 -2°C° 0.3 mm 4 mps 751 mmHg 77%
    17:00 -2°C° 0.4 mm 4 mps 752 mmHg 78%
    18:00 -3°C° 0.4 mm 4 mps 752 mmHg 79%
    19:00 -3°C° 0.4 mm 4 mps 752 mmHg 80%
    20:00 -3°C° 0.2 mm 4 mps 752 mmHg 79%
    21:00 -3°C° 0.2 mm 4 mps 752 mmHg 79%
    22:00 -3°C° 0.2 mm 4 mps 752 mmHg 78%
    23:00 -4°C° 0.1 mm 4 mps 752 mmHg 77%

    Tomorrow, 27 February, Tuesday

    Time Temperature Precipitation Wind Pressure Humidity
    00:00 -4°C° 0.1 mm 4 mps 752 mmHg 76%
    01:00 -4°C° 0.1 mm 4 mps 752 mmHg 75%
    02:00 -4°C° 0.1 mm 4 mps 752 mmHg 75%
    03:00 -4°C° 0.1 mm 4 mps 752 mmHg 75%
    04:00 -4°C° 0.1 mm 4 mps 752 mmHg 76%
    05:00 -4°C° 0.1 mm 4 mps 752 mmHg 76%
    06:00 -5°C° 0.1 mm 4 mps 752 mmHg 76%
    07:00 -5°C° 0.1 mm 4 mps 753 mmHg 76%
    08:00 -4°C° 0.1 mm 4 mps 753 mmHg 74%
    09:00 -4°C° 0.1 mm 3 mps 754 mmHg 71%
    10:00 -2°C° 0.1 mm 3 mps 754 mmHg 68%
    11:00 -2°C° 0 mm 3 mps 754 mmHg 66%
    12:00 -1°C° 0 mm 2 mps 754 mmHg 64%
    13:00 +1°C° 0 mm 2 mps 755 mmHg 62%
    14:00 +1°C° 0 mm 2 mps 755 mmHg 61%
    15:00 +1°C° 0 mm 2 mps 755 mmHg 60%
    16:00 +1°C° 0 mm 2 mps 755 mmHg 59%
    17:00 -1°C° 0 mm 2 mps 756 mmHg 63%
    18:00 -2°C° 0 mm 2 mps 756 mmHg 66%
    19:00 -3°C° 0 mm 2 mps 757 mmHg 70%
    20:00 -3°C° 0 mm 2 mps 757 mmHg 71%
    21:00 -4°C° 0 mm 2 mps 757 mmHg 72%
    22:00 -5°C° 0 mm 3 mps 758 mmHg 73%
    23:00 -5°C° 0 mm 3 mps 758 mmHg 74%

    Day after tomorrow, 28 February, Wednesday

    Time Temperature Precipitation Wind Pressure Humidity
    00:00 -6°C° 0 mm 3 mps 758 mmHg 74%
    01:00 -6°C° 0 mm 3 mps 758 mmHg 74%
    02:00 -7°C° 0 mm 4 mps 758 mmHg 74%
    03:00 -8°C° 0 mm 4 mps 758 mmHg 74%
    04:00 -8°C° 0 mm 4 mps 758 mmHg 74%
    05:00 -8°C° 0 mm 4 mps 759 mmHg 73%
    06:00 -9°C° 0 mm 4 mps 759 mmHg 73%
    07:00 -9°C° 0 mm 4 mps 760 mmHg 73%
    08:00 -8°C° 0 mm 4 mps 760 mmHg 69%
    09:00 -5°C° 0 mm 4 mps 760 mmHg 65%
    10:00 -4°C° 0 mm 4 mps 761 mmHg 61%
    11:00 -3°C° 0 mm 4 mps 761 mmHg 58%
    12:00 -2°C° 0 mm 4 mps 761 mmHg 55%
    13:00 -2°C° 0 mm 4 mps 761 mmHg 52%
    14:00 -1°C° 0 mm 4 mps 761 mmHg 53%
    15:00 -1°C° 0 mm 4 mps 762 mmHg 54%
    16:00 -1°C° 0 mm 4 mps 762 mmHg 54%
    17:00 -3°C° 0 mm 4 mps 762 mmHg 59%
    18:00 -4°C° 0 mm 3 mps 763 mmHg 63%
    19:00 -5°C° 0 mm 3 mps 764 mmHg 67%
    20:00 -5°C° 0 mm 3 mps 764 mmHg 67%
    21:00 -6°C° 0 mm 3 mps 765 mmHg 68%
    22:00 -6°C° 0 mm 3 mps 765 mmHg 68%
    23:00 -6°C° 0 mm 3 mps 765 mmHg 67%

    1 March, Thursday

    Time Temperature Precipitation Wind Pressure Humidity
    00:00 -7°C° 0 mm 3 mps 765 mmHg 66%
    01:00 -7°C° 0 mm 3 mps 765 mmHg 65%
    02:00 -6°C° 0 mm 3 mps 765 mmHg 62%
    03:00 -6°C° 0 mm 3 mps 764 mmHg 59%
    04:00 -5°C° 0 mm 3 mps 764 mmHg 57%
    05:00 -5°C° 0 mm 3 mps 764 mmHg 54%
    06:00 -4°C° 0 mm 3 mps 764 mmHg 52%
    07:00 -4°C° 0 mm 3 mps 764 mmHg 50%
    08:00 -1°C° 0 mm 3 mps 763 mmHg 48%
    09:00 +1°C° 0 mm 3 mps 763 mmHg 45%
    10:00 +1°C° 0 mm 4 mps 763 mmHg 43%
    11:00 +3°C° 0.1 mm 4 mps 762 mmHg 47%
    12:00 +3°C° 0.1 mm 5 mps 761 mmHg 51%
    13:00 +3°C° 0.1 mm 5 mps 761 mmHg 55%
    14:00 +3°C° 0.4 mm 5 mps 760 mmHg 64%
    15:00 +3°C° 0.4 mm 6 mps 760 mmHg 72%
    16:00 +2°C° 0.4 mm 6 mps 759 mmHg 81%
    17:00 +2°C° 0.5 mm 6 mps 759 mmHg 84%
    18:00 +2°C° 0.5 mm 6 mps 759 mmHg 86%
    19:00 +2°C° 0.5 mm 6 mps 759 mmHg 88%
    20:00 +3°C° 0.7 mm 6 mps 758 mmHg 88%
    21:00 +3°C° 0.7 mm 7 mps 758 mmHg 88%
    22:00 +3°C° 0.7 mm 7 mps 757 mmHg 88%
    23:00 +3°C° 0.8 mm 7 mps 757 mmHg 89%

    2 March, Friday

    Time Temperature Precipitation Wind Pressure Humidity
    00:00 +4°C° 0.8 mm 7 mps 756 mmHg 90%
    01:00 +4°C° 0.8 mm 7 mps 755 mmHg 90%
    02:00 +5°C° 1 mm 7 mps 754 mmHg 91%
    03:00 +5°C° 1 mm 7 mps 754 mmHg 92%
    04:00 +5°C° 1 mm 7 mps 753 mmHg 93%
    05:00 +7°C° 1.2 mm 6 mps 753 mmHg 93%
    06:00 +7°C° 1.2 mm 6 mps 752 mmHg 93%
    07:00 +7°C° 1.2 mm 6 mps 752 mmHg 93%
    08:00 +8°C° 1.5 mm 5 mps 752 mmHg 93%
    09:00 +8°C° 1.5 mm 5 mps 752 mmHg 93%
    10:00 +8°C° 1.5 mm 4 mps 752 mmHg 92%
    11:00 +8°C° 1.5 mm 4 mps 752 mmHg 92%
    12:00 +8°C° 1.5 mm 4 mps 752 mmHg 92%
    13:00 +9°C° 1.5 mm 3 mps 752 mmHg 91%
    14:00 +9°C° 0.5 mm 3 mps 752 mmHg 91%
    15:00 +9°C° 0.5 mm 3 mps 752 mmHg 90%
    16:00 +9°C° 0.5 mm 3 mps 752 mmHg 89%
    17:00 +9°C° 0.1 mm 3 mps 752 mmHg 88%
    18:00 +9°C° 0.1 mm 3 mps 752 mmHg 88%
    19:00 +9°C° 0.1 mm 2 mps 753 mmHg 87%
    20:00 +8°C° 0.1 mm 2 mps 753 mmHg 87%
    21:00 +8°C° 0.1 mm 2 mps 753 mmHg 87%
    22:00 +8°C° 0.1 mm 2 mps 753 mmHg 87%
    23:00 +8°C° 0 mm 2 mps 753 mmHg 87%

    3 March, Saturday

    Time Temperature Precipitation Wind Pressure Humidity
    00:00 +8°C° 0 mm 2 mps 753 mmHg 87%
    01:00 +8°C° 0 mm 2 mps 753 mmHg 88%
    02:00 +8°C° 0 mm 2 mps 753 mmHg 88%
    03:00 +9°C° 0 mm 1 mps 753 mmHg 88%
    04:00 +9°C° 0 mm 1 mps 753 mmHg 88%
    05:00 +9°C° 0 mm 1 mps 753 mmHg 88%
    06:00 +9°C° 0 mm 1 mps 753 mmHg 88%
    07:00 +9°C° 0 mm 1 mps 754 mmHg 88%
    08:00 +10°C° 0 mm 1 mps 754 mmHg 87%
    09:00 +11°C° 0 mm 1 mps 754 mmHg 86%
    10:00 +12°C° 0 mm 1 mps 754 mmHg 85%
    11:00 +12°C° 0 mm 1 mps 753 mmHg 85%
    12:00 +12°C° 0 mm 1 mps 753 mmHg 86%
    13:00 +11°C° 0 mm 0 mps 753 mmHg 86%
    14:00 +12°C° 0.2 mm 1 mps 753 mmHg 87%
    15:00 +12°C° 0.2 mm 1 mps 753 mmHg 88%
    16:00 +12°C° 0.2 mm 1 mps 753 mmHg 90%
    17:00 +11°C° 0.6 mm 1 mps 753 mmHg 91%
    18:00 +11°C° 0.6 mm 1 mps 754 mmHg 92%
    19:00 +10°C° 0.6 mm 1 mps 754 mmHg 93%
    20:00 +10°C° 0.4 mm 1 mps 754 mmHg 93%
    21:00 +10°C° 0.4 mm 1 mps 754 mmHg 93%
    22:00 +9°C° 0.4 mm 2 mps 754 mmHg 93%
    23:00 +9°C° 0.2 mm 2 mps 754 mmHg 92%
    Show more